GFSNGP_250_rhum_234.txt.gz
RH
55 46 35 33 44 43 70 96 98 84 87 100 100 100 100 100 98 90 83 83 59 49 61 76 81 82 56 99 100 92 87 62 49 46 45 57 59 40 35 27 22 19 13 14
69 65 46 46 46 66 85 100 100 82 98 100 100 100 89 96 94 86 80 53 51 85 100 100 78 83 100 96 88 70 61 44 44 41 54 44 49 36 29 27 25 18 16 17
79 76 65 52 66 72 80 93 92 100 100 100 84 80 84 84 80 84 61 98 100 100 99 78 98 100 91 71 52 45 47 48 42 56 40 40 36 34 31 30 24 19 19 17
90 78 62 69 66 76 70 89 100 100 100 100 98 92 80 99 94 66 60 59 82 78 71 88 100 86 69 47 47 38 42 48 61 40 39 36 33 32 31 28 24 21 19 14
77 88 64 66 93 60 71 98 100 100 100 100 88 65 97 100 84 60 47 44 62 98 100 99 82 58 48 44 37 44 34 46 41 36 34 31 30 30 30 27 24 22 17 13
100 80 74 71 62 78 100 100 100 100 100 78 66 96 90 68 59 55 72 76 100 100 82 54 47 40 36 31 43 36 32 35 35 32 31 29 29 28 26 26 24 19 15 13
98 84 62 75 59 82 97 100 100 99 83 73 94 82 59 79 95 85 84 100 81 61 56 51 44 37 37 33 32 36 31 32 29 28 27 26 24 23 25 23 19 15 14 13
99 90 68 54 81 87 100 100 100 93 89 100 87 61 76 71 80 91 79 74 77 70 42 40 30 30 27 29 29 29 30 31 24 21 19 17 18 20 20 16 13 13 13 13
96 71 74 96 100 100 100 100 92 95 96 69 72 70 60 68 72 76 96 86 71 46 36 29 24 24 24 27 25 20 18 20 20 13 12 15 15 15 12 11 12 12 13 12
92 100 100 100 100 100 100 100 100 86 69 84 66 84 82 74 86 78 62 53 49 28 23 21 23 24 25 19 13 10 9 11 13 12 13 11 10 9 10 9 10 11 11 11
100 100 100 100 100 100 100 100 98 97 84 77 73 71 89 85 69 55 50 26 21 19 22 23 20 16 13 10 7 6 6 7 10 9 10 9 8 7 7 8 8 9 9 9
100 100 100 100 100 100 100 100 100 85 75 95 98 89 67 56 49 33 20 18 18 22 16 15 13 9 8 8 9 6 4 4 5 6 8 7 6 5 5 5 6 6 6 7
100 100 100 100 100 100 100 100 99 100 100 98 83 72 60 34 21 17 18 22 15 12 11 9 7 7 7 6 7 6 4 3 3 4 4 4 4 4 4 4 4 5 5 6
100 100 100 100 100 100 100 100 100 98 84 74 61 52 26 16 17 21 16 11 11 11 9 7 7 6 6 5 5 5 4 3 3 3 3 3 3 2 3 3 3 3 3 4
100 100 100 100 100 100 100 99 95 76 61 44 27 16 18 21 23 19 12 12 11 8 8 8 7 6 5 4 4 3 2 2 2 2 3 3 3 2 3 3 3 3 3 3
100 100 100 100 100 100 95 73 49 42 29 19 19 23 27 26 17 11 11 10 8 8 7 6 5 4 4 3 3 2 2 2 2 2 2 3 3 3 3 3 4 4 3 3
100 100 100 100 92 71 56 42 42 29 23 24 32 29 25 16 10 10 10 8 7 5 4 4 4 4 3 3 2 2 2 2 2 2 3 4 4 4 4 3 4 4 4 4
100 100 98 84 66 47 49 39 28 30 35 33 27 24 14 10 10 9 8 9 7 6 4 4 4 3 2 2 2 2 2 3 3 3 3 3 4 4 4 4 4 4 4 4
100 74 63 49 51 49 37 40 41 38 31 25 21 12 8 8 8 8 8 8 6 6 5 4 3 2 2 2 2 2 3 3 3 3 3 3 3 4 4 4 4 4 4 4
54 54 73 61 44 48 48 40 29 26 22 17 10 8 7 8 7 7 7 6 6 5 5 4 3 2 2 2 2 3 3 3 3 3 3 3 3 3 4 4 4 4 4 4
67 50 45 46 59 47 36 28 28 22 15 11 8 7 8 8 8 8 8 6 6 5 4 3 2 2 2 3 3 3 3 3 3 3 3 3 3 3 4 3 4 4 4 4
44 46 50 56 45 38 33 29 22 16 11 9 8 8 9 8 9 9 8 7 6 5 4 3 2 2 3 4 3 3 3 3 2 2 3 3 3 3 3 3 4 4 4 4
46 51 50 41 45 38 32 25 17 13 10 10 9 9 10 10 10 9 7 6 6 5 3 2 2 3 3 3 2 2 2 2 2 2 2 3 3 3 3 3 4 4 4 4
50 48 43 40 46 33 29 22 15 13 11 10 9 9 10 10 9 8 7 6 6 4 3 2 3 4 3 2 2 2 2 2 2 2 3 3 3 3 3 3 3 4 3 4
45 43 43 42 44 36 25 22 14 13 11 10 9 8 10 9 9 8 7 7 6 5 3 2 3 3 2 2 2 2 2 2 2 3 3 3 3 3 3 3 3 4 4 4
42 40 41 42 47 33 25 19 13 13 11 10 9 8 10 10 9 9 8 7 6 5 3 3 4 3 2 2 2 2 2 3 3 3 3 4 3 3 3 4 4 4 4 4
39 38 38 41 45 41 26 20 13 13 11 10 9 8 9 10 10 10 9 7 6 5 4 3 4 3 2 2 2 2 3 4 4 4 4 4 4 4 4 4 4 4 4 4

GFSNGP_250_rhum_237.txt.gz
RH
100 80 80 67 60 63 61 54 44 43 37 45 84 91 98 89 100 100 100 85 95 99 100 100 100 100 84 73 67 54 45 66 99 100 82 69 56 45 40 38 29 34 38 34
100 100 100 92 92 100 96 71 57 45 48 81 95 92 80 100 100 100 82 94 100 94 74 87 97 98 92 79 55 45 85 88 92 81 74 65 52 45 41 34 36 34 30 27
60 94 95 100 100 100 100 93 76 60 80 90 100 100 95 96 100 100 100 100 100 100 100 100 91 72 60 38 47 91 87 78 75 70 60 51 46 40 32 34 32 28 25 24
41 42 54 96 100 100 100 99 92 78 71 99 100 100 99 100 100 100 100 100 100 99 95 98 77 60 46 40 55 47 54 73 62 54 47 36 29 29 28 27 25 24 23 24
39 42 40 67 92 100 98 100 100 99 99 100 95 95 100 100 100 100 100 100 77 88 98 72 50 39 50 60 67 71 58 54 47 35 25 23 25 25 24 23 22 22 23 22
50 49 46 73 97 99 100 100 89 100 100 100 100 100 100 100 100 100 86 71 79 70 56 41 47 48 56 76 66 60 60 40 25 26 27 25 21 19 20 20 20 20 17 16
69 56 54 84 78 64 62 82 100 100 100 100 100 100 100 100 99 64 62 84 77 55 40 38 66 79 72 63 61 52 31 26 31 30 22 18 16 16 16 14 12 12 13 13
64 66 66 79 64 91 100 100 100 100 100 100 100 100 100 99 88 100 96 68 51 68 89 88 79 68 55 42 26 27 28 22 17 16 15 15 14 11 10 11 10 12 13 13
85 79 84 73 76 100 100 100 100 100 100 100 100 100 100 97 90 59 46 85 92 82 74 60 49 31 22 23 22 16 12 12 12 11 10 8 8 10 11 11 10 10 9 9
95 93 73 60 100 100 100 99 89 93 98 97 100 97 69 55 73 97 90 70 62 57 38 24 23 24 22 14 10 10 9 8 6 7 6 6 6 9 11 10 9 8 7 7
87 66 69 100 100 97 87 98 100 100 100 96 70 81 97 94 85 63 62 58 28 21 24 25 20 13 9 8 8 7 6 7 7 7 5 5 4 5 6 9 9 7 6 6
60 83 99 97 100 100 100 100 100 91 84 97 100 96 96 77 72 61 43 30 26 23 18 13 8 8 7 6 6 6 6 6 6 5 5 4 3 4 4 4 5 4 4 4
84 91 94 100 100 100 100 97 100 100 100 100 98 83 78 70 48 35 26 24 22 14 10 7 7 7 6 6 6 5 5 5 5 4 4 3 3 3 3 3 3 3 2 3
95 95 97 100 100 99 99 100 100 100 98 81 74 66 48 30 23 24 24 21 12 8 6 6 7 6 6 6 5 5 4 4 4 3 3 2 2 2 2 3 3 3 2 3
85 98 100 100 100 100 100 100 92 73 72 62 39 30 27 26 28 24 18 10 7 6 7 7 6 6 6 5 4 4 4 3 3 2 2 2 2 2 2 2 2 2 2 3
96 88 94 100 100 100 90 77 69 62 40 36 32 26 32 28 21 15 11 8 7 7 8 7 7 6 5 5 4 3 3 2 2 2 2 2 2 3 3 4 3 3 3 3
88 100 100 100 92 87 74 64 49 46 34 33 34 30 26 21 14 11 9 8 7 7 8 7 6 5 5 4 4 3 2 2 2 2 2 2 3 3 4 4 4 4 4 4
100 100 93 81 77 69 64 48 39 35 37 36 27 24 18 13 12 11 9 8 8 8 7 5 5 5 4 4 3 2 2 2 3 3 3 3 3 3 3 4 4 4 4 4
100 96 84 68 70 56 48 39 38 40 32 28 26 18 13 12 11 10 8 7 7 8 7 6 6 5 4 3 2 2 2 3 3 3 3 3 3 3 3 3 4 4 3 3
83 79 76 76 61 44 38 40 40 34 29 29 21 14 12 11 9 8 6 6 7 8 7 6 6 5 3 2 2 3 3 3 2 2 2 2 2 2 3 3 3 3 4 3
72 82 71 46 37 40 39 39 35 31 32 27 20 12 11 10 7 7 6 7 7 8 8 6 5 4 3 2 3 3 2 2 2 2 2 2 2 2 2 3 3 3 3 4
82 71 44 38 44 40 37 34 33 35 32 26 19 12 10 8 7 6 6 8 8 9 8 6 5 4 3 3 4 2 2 2 2 2 2 2 2 2 2 3 4 4 3 3
51 39 42 48 46 41 34 31 34 35 32 28 16 10 9 8 7 7 7 8 8 8 7 6 5 3 3 4 3 2 2 2 2 2 2 2 2 2 3 3 4 4 3 3
41 44 49 45 44 38 32 33 31 32 32 27 15 10 9 8 7 7 7 8 8 8 7 6 5 3 3 4 2 2 2 2 3 3 3 3 3 3 3 3 4 3 3 3
45 51 48 46 38 35 35 33 31 30 30 27 16 11 9 8 8 7 7 8 8 8 7 6 5 3 3 4 2 2 2 3 4 4 4 4 4 4 4 4 4 4 3 3
53 50 48 42 37 38 36 33 31 29 28 30 20 13 9 8 7 7 7 8 8 8 8 7 6 4 4 4 3 2 3 3 4 4 4 4 4 4 4 4 4 4 4 4
52 48 43 41 38 39 37 34 31 28 29 31 25 18 10 8 8 7 7 7 8 7 8 7 7 4 4 4 3 3 3 4 4 4 4 4 3 3 4 4 4 4 4 4

GFSNGP_250_rhum_240.txt.gz
RH
100 100 100 100 100 100 99 95 80 54 43 55 51 55 70 91 100 100 100 100 100 100 100 100 100 100 100 100 100 90 91 89 90 84 86 79 62 47 72 76 74 66 64 60
75 68 60 60 70 71 66 66 62 46 42 65 70 66 74 81 84 89 84 100 100 100 100 100 100 100 94 92 100 96 81 71 70 78 68 56 57 72 77 78 71 66 59 40
61 64 62 59 83 66 63 63 51 40 45 67 100 100 93 88 84 89 100 100 100 100 100 100 100 100 100 91 78 71 74 85 82 72 56 57 69 67 65 58 44 28 26 24
69 76 72 90 88 79 68 53 48 58 48 73 100 100 93 73 92 100 100 100 100 100 97 100 100 100 94 71 66 60 58 62 55 43 47 55 41 30 28 27 25 21 18 18
69 73 64 85 80 62 59 48 69 63 76 80 91 97 100 100 100 100 100 100 100 100 100 100 99 83 66 57 48 45 40 47 41 44 49 31 25 21 17 16 16 14 11 11
76 80 70 80 58 50 48 51 56 68 67 63 54 64 84 100 100 100 100 100 100 100 86 74 59 46 35 32 34 39 34 46 50 31 24 22 18 15 11 8 8 9 10 12
89 84 72 54 39 39 45 55 62 70 70 84 100 100 100 100 100 100 100 99 77 60 48 38 34 43 45 41 43 46 34 25 24 23 17 12 10 8 8 8 8 9 9 10
88 95 73 43 37 46 60 52 78 77 95 100 100 100 100 100 100 90 65 53 47 45 53 64 61 48 44 38 27 23 21 18 15 10 8 7 7 8 8 7 7 7 10 10
86 70 53 43 39 60 79 92 90 100 100 100 100 100 91 73 64 56 62 61 67 70 61 42 38 29 26 25 21 17 14 11 8 6 6 7 6 6 6 7 5 5 7 9
72 60 51 50 69 81 88 81 100 100 100 98 82 82 72 65 86 86 77 65 56 41 31 29 27 25 22 18 13 10 7 6 6 6 6 7 6 6 6 6 4 4 5 7
60 59 62 82 83 82 91 100 100 97 76 81 65 57 96 94 76 64 52 39 30 28 29 27 25 19 12 9 8 6 6 6 6 6 6 6 6 6 6 4 4 4 4 5
61 72 78 76 75 97 100 93 75 67 65 68 99 100 85 69 58 42 28 28 29 30 26 18 13 10 8 6 6 6 6 6 6 5 4 4 4 5 4 4 3 3 4 4
70 79 75 81 100 100 87 84 75 80 100 97 86 69 62 51 34 29 29 31 28 20 12 10 8 6 5 5 6 6 5 5 5 4 4 4 4 4 3 3 3 2 2 3
75 76 79 97 97 98 91 92 100 100 100 82 65 50 42 36 30 28 28 26 17 11 9 7 6 5 5 6 6 6 5 4 4 4 3 3 3 2 2 2 2 2 2 2
73 85 94 100 95 98 100 100 100 98 78 62 56 41 35 31 28 26 25 18 10 8 7 6 6 5 6 6 6 6 4 4 3 3 2 2 2 2 2 2 3 2 2 2
79 97 100 98 100 100 100 100 99 81 65 50 40 36 33 28 25 26 20 11 8 7 6 6 6 6 7 6 6 5 4 4 3 2 2 2 2 3 3 3 3 3 3 3
100 95 98 100 100 100 100 85 66 54 45 38 36 34 30 27 28 24 14 9 8 6 6 6 6 7 6 6 5 4 4 3 2 2 3 3 3 2 2 3 3 4 4 3
98 100 100 100 100 100 84 73 57 42 40 38 35 31 31 30 26 20 10 8 7 6 6 6 7 6 6 5 5 4 3 2 3 3 2 2 2 2 2 2 2 2 3 4
100 100 100 100 100 87 73 52 43 41 40 37 33 33 31 27 26 19 10 8 7 6 6 7 7 7 7 6 5 4 3 3 3 2 2 2 2 2 2 2 2 2 2 3
100 100 100 96 76 74 48 45 43 41 38 34 35 34 28 27 25 17 8 6 6 6 6 7 8 7 7 6 5 3 3 3 2 2 2 2 2 2 2 2 2 2 2 2
100 100 92 76 70 48 45 43 43 42 37 38 36 32 28 29 26 16 8 7 6 5 6 6 7 7 7 6 4 3 4 3 2 2 2 2 2 3 3 2 2 2 2 2
96 96 78 64 46 45 45 45 42 40 41 37 32 32 29 29 24 14 8 6 6 5 6 6 7 7 7 6 4 3 3 2 2 2 3 3 3 3 4 3 3 3 3 3
100 91 70 49 46 48 48 44 42 42 40 35 32 32 30 28 27 19 8 6 6 6 6 6 7 7 7 6 4 3 3 2 2 2 3 4 4 3 4 4 4 4 3 4
99 84 57 49 48 51 47 45 48 44 41 36 34 33 31 28 28 20 10 7 6 5 6 6 7 7 7 6 4 4 3 2 2 3 4 4 3 3 3 4 4 4 4 4
77 59 52 50 53 50 49 50 49 44 42 36 34 34 32 29 29 25 15 8 6 5 6 6 7 7 7 6 4 4 3 2 2 4 4 4 3 3 3 3 4 4 4 4
56 50 51 55 52 53 56 52 47 46 44 37 35 35 31 31 29 27 20 10 7 6 5 6 6 8 8 7 4 4 4 3 3 4 4 3 3 3 3 3 4 4 4 4
49 49 56 55 56 58 56 54 49 49 47 40 36 34 32 32 28 29 24 13 8 6 6 6 6 7 8 7 6 4 4 3 3 4 5 4 3 3 3 3 4 4 4 4

GFSNGP_250_rhum_243.txt.gz
RH
100 100 100 95 75 90 70 87 66 81 59 75 68 68 66 60 55 54 49 54 66 66 74 95 89 93 96 100 99 96 100 98 99 96 77 70 75 77 66 60 49 48 47 49
100 91 74 70 72 78 100 100 79 69 78 77 66 54 51 55 58 56 55 54 68 72 78 68 67 75 95 100 100 100 100 93 74 58 61 69 72 70 67 52 43 48 57 65
66 63 56 79 86 96 95 90 76 78 59 54 47 48 49 57 55 55 63 73 77 73 66 72 76 77 78 76 74 79 78 78 84 88 82 68 57 44 36 44 46 45 37 28
58 69 61 70 92 93 93 85 81 63 56 53 50 46 47 49 61 77 89 98 90 80 77 80 88 84 84 88 78 73 74 79 75 56 40 35 40 37 30 25 23 21 20 19
65 65 79 87 97 86 63 73 71 68 56 42 43 45 58 68 76 93 92 95 97 100 100 100 99 93 85 86 80 69 48 33 32 33 29 25 24 21 21 19 18 16 12 10
74 66 74 94 79 64 59 65 62 52 42 45 56 69 73 83 82 96 100 96 96 92 92 88 76 67 56 39 33 39 37 29 26 26 24 22 20 17 14 11 9 8 6 6
81 76 85 83 72 58 55 50 47 45 63 70 75 92 100 100 100 100 100 95 91 69 58 49 37 36 44 45 29 25 26 26 25 20 16 12 9 8 8 7 6 6 5 6
87 80 80 84 69 65 52 45 49 69 77 88 100 100 100 100 100 99 80 58 56 47 43 44 41 32 26 24 24 24 22 18 14 11 9 8 7 6 5 5 5 6 6 6
86 87 79 79 73 51 47 56 76 85 99 100 100 100 100 98 70 56 51 49 57 59 38 30 28 25 25 23 22 19 14 9 8 8 6 6 6 5 5 5 5 5 4 4
80 85 82 75 55 48 57 79 92 100 100 100 100 92 66 55 47 50 67 71 54 32 30 29 28 25 23 18 11 8 7 7 5 5 5 5 5 5 4 5 5 5 5 4
90 80 62 70 47 56 75 92 99 100 100 96 76 64 53 42 71 88 69 39 32 32 31 29 23 21 17 11 7 6 6 5 5 5 5 5 5 4 4 4 4 4 4 3
81 75 58 59 53 66 88 99 100 100 90 86 59 48 67 96 82 49 37 36 34 32 27 23 20 15 8 6 6 5 5 5 5 5 5 5 5 5 4 4 4 3 2 2
80 61 55 48 59 84 99 100 100 95 93 72 70 90 95 71 42 42 38 37 33 28 23 20 14 8 6 5 5 4 5 5 5 5 4 4 4 3 3 2 2 2 2 2
74 52 51 54 67 97 100 97 98 97 76 80 100 99 64 48 44 40 38 33 29 24 20 15 9 6 5 4 5 5 5 5 5 5 4 4 3 2 2 3 3 3 3 3
55 52 51 60 95 100 91 99 100 86 97 100 100 62 53 47 42 38 35 30 27 22 20 11 6 5 4 5 5 6 6 6 5 4 3 2 2 2 3 2 2 2 2 2
54 52 56 94 98 77 100 99 100 100 100 100 60 56 49 43 39 37 32 29 27 24 18 10 5 5 5 6 6 6 6 5 4 3 2 2 3 2 2 2 2 2 2 2
54 60 96 94 85 95 100 100 100 100 100 60 58 52 46 39 39 36 30 30 28 22 17 8 5 4 4 6 6 6 5 5 4 2 2 2 2 2 2 2 2 2 2 2
65 94 99 84 90 100 100 100 100 100 62 58 54 49 44 40 38 33 31 32 27 22 17 8 5 4 5 5 5 6 5 5 3 3 3 2 2 2 2 2 2 2 2 2
91 87 90 95 100 100 100 100 100 61 59 56 52 48 44 40 39 35 32 30 26 23 18 9 5 4 5 5 6 6 5 4 3 3 3 2 2 3 3 3 3 3 2 2
90 93 90 100 100 100 100 100 59 58 58 56 52 48 42 44 42 38 31 30 27 24 17 9 5 4 5 5 6 6 5 4 3 3 2 2 3 4 4 4 3 3 3 3
90 100 100 100 100 100 100 63 57 59 59 55 52 46 47 49 44 40 31 32 28 25 16 9 5 5 5 5 6 6 5 3 4 3 2 3 4 4 4 3 3 3 4 4
100 100 100 100 100 100 74 59 60 62 57 55 52 48 52 50 45 39 33 33 31 29 17 9 6 5 5 5 6 6 5 3 3 3 2 3 4 3 3 3 3 3 4 4
100 100 100 100 100 86 65 61 63 59 58 57 49 53 54 52 46 39 34 34 32 30 20 10 6 5 5 5 6 6 6 4 4 3 2 4 4 3 3 3 3 3 4 4
100 100 100 100 88 70 63 64 62 58 59 52 49 58 56 52 46 39 37 35 33 29 24 12 7 5 5 5 6 6 6 4 4 3 2 4 4 3 3 3 3 4 4 4
100 100 100 87 69 64 64 62 58 59 58 53 56 60 55 52 46 40 38 36 34 29 26 16 8 6 5 5 6 6 7 5 4 4 3 4 4 3 3 3 3 4 4 4
100 100 96 73 63 64 60 58 60 61 59 59 61 59 56 53 47 43 40 37 34 30 31 20 10 6 5 5 5 6 7 6 4 4 3 3 4 3 3 3 3 4 4 4
100 100 88 68 64 61 56 60 62 62 64 66 62 61 58 52 47 45 40 38 34 31 31 22 13 8 6 5 5 6 7 7 4 4 4 3 4 4 3 3 3 4 4 4

GFSNGP_250_rhum_246.txt.gz
RH
61 87 98 100 100 100 91 65 41 54 68 64 90 83 76 68 61 54 52 47 45 46 51 56 56 58 60 66 68 68 68 64 64 68 65 60 57 54 56 56 54 49 46 52
100 100 100 100 100 98 74 54 55 68 77 78 76 76 62 61 56 51 45 41 47 51 55 60 77 80 68 68 65 58 55 49 46 46 48 52 60 64 66 68 71 72 65 53
100 100 100 84 71 64 68 62 69 78 84 81 75 69 62 58 48 41 45 55 57 63 72 80 75 63 57 58 69 79 85 83 77 70 65 60 55 49 44 39 34 33 30 27
100 100 80 69 82 80 84 70 72 94 97 83 68 59 54 48 42 52 61 66 71 77 76 67 58 77 98 90 72 60 55 50 39 30 28 26 24 23 22 21 21 21 21 20
100 76 51 75 69 71 83 94 83 92 90 75 59 55 47 49 61 74 82 81 68 59 58 82 96 75 54 48 45 38 29 26 26 24 23 21 20 19 18 16 14 12 9 8
53 57 69 88 74 75 84 92 90 78 77 68 61 46 57 70 80 76 71 69 77 99 90 60 48 45 40 31 29 28 26 23 21 19 18 17 16 12 9 8 6 6 6 5
68 68 81 82 69 75 85 79 71 66 64 65 60 79 91 78 67 70 81 98 86 58 62 52 36 33 32 30 26 23 21 20 19 16 11 8 7 6 5 5 5 4 4 4
79 90 91 84 82 80 75 77 60 53 55 57 80 100 93 74 84 100 82 60 67 58 38 36 34 31 28 25 25 24 21 18 14 9 6 5 5 4 4 4 4 5 5 5
96 100 97 78 76 78 76 67 54 47 50 76 93 78 69 80 78 64 71 70 50 43 40 36 32 30 29 28 24 22 20 14 7 5 4 4 4 4 4 5 5 4 4 5
100 100 85 78 71 73 69 65 51 55 68 84 75 74 83 68 68 76 74 67 49 44 37 35 34 32 29 25 22 18 13 6 4 4 4 4 4 4 5 4 4 4 4 4
100 100 96 86 78 78 68 52 53 59 74 76 73 86 62 63 75 75 87 54 47 41 39 39 36 30 27 23 18 14 7 4 4 4 4 4 5 5 5 4 3 3 4 3
100 91 94 83 79 74 54 56 55 65 77 71 86 55 55 74 89 96 62 51 46 40 43 40 36 30 24 19 15 8 4 4 3 4 4 4 5 6 4 3 2 2 2 3
93 86 79 85 89 60 60 61 60 83 71 86 57 55 71 100 100 69 56 50 45 46 44 42 34 26 19 16 9 5 3 3 4 4 4 5 5 4 4 3 2 2 2 2
86 90 98 84 70 58 65 57 85 76 80 64 56 69 98 100 78 61 55 49 48 47 45 37 29 22 18 16 7 4 3 4 4 4 5 5 4 3 3 3 3 2 2 2
100 100 93 77 65 62 61 76 74 67 70 59 66 99 100 81 65 59 53 52 49 47 43 33 26 21 20 14 6 4 4 4 5 5 5 4 3 3 3 2 2 2 2 2
100 100 83 68 58 64 67 76 65 72 63 67 99 100 88 67 63 57 55 50 50 46 37 28 28 23 19 12 6 4 4 4 5 5 5 4 3 3 2 2 2 2 2 2
100 85 67 60 61 63 71 60 69 63 71 100 100 92 70 67 60 58 56 52 49 43 33 29 29 22 19 11 5 4 4 4 5 5 5 3 3 2 2 2 3 3 3 3
83 70 60 63 64 68 57 68 66 76 100 100 93 70 72 65 60 57 55 52 47 40 33 31 29 24 21 11 6 4 4 4 5 6 4 3 3 2 2 3 3 3 3 3
70 53 62 62 62 64 68 68 77 100 100 100 68 78 71 63 61 55 59 48 47 39 35 31 31 26 22 11 6 4 4 5 6 6 4 3 3 2 3 4 3 3 3 3
46 61 66 64 66 70 73 75 99 100 100 71 79 79 67 63 56 60 52 49 45 39 36 32 34 27 23 12 6 5 4 5 6 6 4 3 2 3 4 3 3 3 3 3
58 65 62 68 65 74 75 90 100 100 83 78 83 74 66 61 61 58 51 50 43 41 37 32 35 29 26 14 6 5 5 5 5 6 4 4 2 3 4 3 3 3 3 3
62 60 67 61 71 80 90 100 100 93 76 85 80 69 68 60 60 54 54 49 44 42 39 35 37 32 30 16 7 6 5 5 5 6 4 4 3 3 4 3 3 3 4 4
60 65 65 74 81 90 100 100 98 78 82 84 73 71 66 58 56 53 54 50 47 43 40 38 39 35 32 19 9 6 5 5 5 6 5 4 3 3 4 3 3 4 4 4
60 69 71 87 90 100 100 94 79 77 81 79 72 72 64 56 57 55 55 53 49 44 41 39 40 37 32 22 11 7 5 5 5 6 6 4 4 3 4 4 3 3 4 4
71 75 92 95 100 100 95 85 75 75 79 77 75 68 62 57 59 57 59 56 50 45 42 42 41 39 32 27 12 7 6 5 5 5 6 5 4 3 4 4 3 3 4 4
82 96 99 100 100 99 96 81 73 78 81 79 71 66 62 59 61 65 61 56 50 47 44 43 43 40 36 30 15 9 6 5 5 5 6 6 4 4 3 5 4 3 4 4
98 100 100 100 100 100 91 76 77 84 81 72 67 65 62 63 67 70 62 56 51 49 48 45 45 41 38 32 22 10 7 6 5 5 5 6 5 5 4 4 5 4 3 4

GFSNGP_250_rhum_252.txt.gz
RH
28 56 52 97 99 71 59 46 36 48 80 67 95 72 52 50 52 47 52 46 46 46 46 42 40 66 91 100 100 100 98 78 70 66 48 38 35 32 29 26 24 22 21 20
55 41 32 53 68 49 34 34 49 67 74 93 68 58 56 59 59 54 52 48 47 50 43 42 70 90 99 100 100 97 87 67 40 37 32 28 26 23 20 20 19 18 16 15
40 36 32 51 42 40 46 76 75 100 93 54 52 50 66 71 74 75 66 58 49 46 42 72 88 100 100 100 100 83 50 38 34 27 24 23 21 20 19 18 18 16 14 12
57 55 53 48 55 54 91 92 67 76 62 63 66 63 64 65 54 68 64 56 48 43 58 86 100 100 100 99 75 50 39 33 27 25 25 22 23 21 20 17 15 12 8 5
66 64 47 53 77 75 60 63 60 64 66 62 80 80 57 58 58 68 66 55 48 50 82 97 100 99 96 78 51 38 34 29 25 27 26 27 24 23 19 15 10 6 4 3
87 55 50 95 98 97 63 67 66 69 67 81 72 64 58 64 76 70 68 55 48 75 88 100 100 96 73 50 37 39 34 31 30 27 28 26 25 21 16 9 4 3 3 3
63 50 64 100 75 100 77 71 70 73 82 77 62 60 71 79 72 73 63 56 58 83 100 100 98 69 48 37 45 40 36 33 31 30 28 27 24 16 8 4 3 3 3 4
58 83 100 100 99 100 78 72 78 81 82 69 64 63 78 78 78 77 57 57 70 98 100 99 79 58 39 44 44 40 37 36 31 31 31 27 20 11 4 3 2 3 3 4
100 100 100 100 100 77 75 79 72 93 83 72 80 83 84 83 79 72 58 55 75 100 99 88 64 47 41 48 46 43 41 37 32 34 31 25 15 6 3 2 2 3 4 4
90 86 79 73 71 76 78 86 87 90 77 79 82 90 85 85 78 66 60 62 91 100 95 67 56 43 49 47 48 45 43 36 33 36 30 23 11 4 3 2 3 4 4 3
99 98 92 84 70 76 81 91 99 87 80 73 81 79 81 82 71 65 61 71 95 99 76 63 52 50 48 50 47 46 43 34 36 36 29 22 10 4 3 3 3 3 3 3
100 100 100 87 76 66 77 100 82 82 86 83 76 80 80 73 71 63 61 77 97 83 71 64 60 51 47 50 47 47 43 39 38 35 30 20 8 6 4 3 3 3 3 2
100 100 93 90 97 69 91 86 86 79 88 77 78 74 71 80 75 62 69 91 98 71 78 73 59 49 54 51 48 51 44 44 39 34 30 20 7 4 4 5 4 3 3 2
100 100 100 92 97 82 100 84 96 87 84 83 80 75 68 78 67 65 83 100 78 84 75 70 54 51 55 50 52 55 51 47 40 34 30 20 8 5 4 3 5 5 3 2
100 89 93 100 83 98 90 96 98 95 96 89 68 61 74 79 64 74 98 92 77 79 78 62 50 55 54 53 58 61 58 48 42 35 31 22 9 5 4 4 4 4 3 3
91 100 100 99 86 95 100 92 97 99 95 79 62 66 85 72 67 87 100 82 85 80 71 55 52 56 55 58 63 67 58 48 43 36 34 25 10 5 4 4 4 4 3 3
100 96 91 83 100 100 100 100 100 99 94 75 66 71 88 66 72 100 92 88 85 79 63 53 58 57 58 62 67 72 60 49 44 38 35 25 11 6 4 4 5 4 3 4
91 99 100 89 81 100 100 100 98 93 88 72 66 80 73 69 93 98 87 86 84 72 59 58 60 58 64 64 73 71 59 51 48 41 34 26 13 6 5 4 4 5 3 4
83 88 100 99 100 100 94 94 93 89 70 71 71 79 67 76 100 89 93 84 82 65 62 62 62 64 69 67 76 74 60 54 52 45 33 29 16 8 5 4 4 5 4 4
85 98 92 90 100 92 86 86 87 81 72 63 76 65 69 95 96 93 91 86 69 67 66 68 65 69 72 71 76 75 61 60 56 46 34 31 21 9 6 5 4 5 4 4
77 79 86 79 84 90 87 86 77 68 60 69 65 64 86 100 94 92 90 78 65 68 68 69 70 73 74 71 76 76 62 66 56 45 38 34 24 11 7 5 4 5 5 4
83 80 78 68 77 82 85 78 68 64 67 62 63 79 100 94 90 94 87 75 71 77 75 74 77 76 77 72 75 74 66 66 57 46 42 33 26 15 8 6 5 5 5 4
72 60 68 73 80 79 68 64 63 67 64 62 74 99 97 90 100 98 88 74 76 80 77 78 80 81 82 74 74 76 70 65 61 50 44 34 31 19 9 7 5 5 6 5
63 65 69 69 66 62 62 57 64 60 62 73 94 92 94 100 100 100 88 82 88 90 83 83 87 89 85 76 73 76 72 67 63 53 47 38 33 23 12 7 6 5 5 5
48 57 58 48 55 58 55 59 55 60 74 89 91 100 97 100 100 97 90 90 95 88 83 86 93 95 88 76 75 75 73 69 63 56 48 47 32 30 17 8 6 5 5 5
41 39 46 53 51 54 52 55 60 78 88 86 92 86 98 100 100 99 95 98 95 86 86 89 97 99 91 77 76 77 76 71 64 60 51 50 38 33 20 11 7 5 5 5
45 49 50 50 51 48 54 62 75 76 79 82 91 100 98 100 100 100 100 99 91 85 88 91 98 100 94 81 80 80 78 71 68 62 56 50 44 34 28 15 8 6 5 5